Theta_e
308 307 306 306 308 310 310 309 310 311 311 311 311 310 307 306 306 310 312 314 316 311 307 318 319 318 318 309 311 311 311 314 316 319 318 316 316 317 316 316 317 318 318 327 353
307 307 305 306 308 309 310 309 309 309 309 309 308 307 305 306 311 313 312 316 311 307 314 317 318 315 314 307 306 308 307 311 312 314 314 313 312 312 313 313 315 316 316 319 332
308 306 305 306 309 309 309 309 309 308 306 306 306 305 305 307 312 313 313 308 308 309 311 316 317 314 311 308 308 307 308 310 311 311 312 313 313 311 313 313 313 314 315 318 324
307 306 306 307 308 309 309 308 307 305 305 305 305 305 306 312 307 312 311 308 309 312 317 317 311 311 311 311 310 311 310 308 309 310 310 311 310 312 312 312 312 313 314 316 322
307 307 306 307 308 308 308 307 305 304 304 305 305 306 307 310 312 312 309 309 312 316 317 314 312 311 311 310 310 311 311 311 311 309 308 309 310 310 311 312 313 313 314 314 316
306 306 307 307 307 307 307 304 304 305 306 308 308 307 313 309 313 313 311 312 315 317 315 312 312 312 311 311 311 310 312 312 311 310 309 310 311 309 312 311 312 313 312 313 313
307 306 305 305 305 306 305 304 305 307 308 309 308 311 313 309 314 313 314 314 313 313 312 313 313 313 312 312 311 313 313 312 312 310 310 310 311 311 311 312 310 310 311 312 313
307 307 304 304 306 306 305 305 306 308 310 309 307 314 314 314 313 312 313 314 314 313 313 313 314 312 313 312 313 312 312 312 311 311 311 311 311 312 311 310 311 311 311 311 311
307 307 304 305 306 306 306 306 307 310 311 309 314 315 317 317 315 314 313 313 314 312 313 313 312 312 313 314 312 311 313 312 313 312 311 310 312 312 310 310 311 311 310 310 311
307 307 305 306 307 307 307 310 314 313 316 316 315 315 314 314 313 314 312 313 312 311 311 311 308 312 309 312 316 315 315 317 320 317 317 316 311 311 312 312 311 309 309 310 310
306 307 306 306 307 307 308 312 305 309 317 316 314 315 313 313 312 312 312 312 311 311 310 309 309 310 311 312 315 316 318 320 319 318 318 317 314 312 311 311 311 312 311 310 309
306 307 306 306 307 308 310 311 312 309 308 310 312 313 311 312 312 312 312 311 311 311 310 310 310 311 312 313 314 316 319 320 318 317 316 315 313 313 312 311 311 312 312 310 309
306 306 307 307 310 312 312 312 311 311 308 311 313 313 312 311 311 311 312 311 311 311 311 311 311 312 314 314 316 317 319 318 318 317 316 315 316 314 313 313 313 313 312 312 309
306 306 307 307 312 309 313 310 312 313 314 319 316 314 313 311 311 312 312 311 312 313 313 312 312 314 314 314 314 316 316 317 319 318 318 316 320 316 315 314 314 314 313 311 310
307 307 307 307 309 310 311 309 310 315 312 313 310 311 308 309 310 316 315 314 315 314 314 314 314 314 316 316 315 316 315 316 316 318 316 316 318 317 314 314 314 313 314 314 312
307 309 307 309 310 311 312 311 312 317 317 311 309 309 310 312 315 314 313 313 312 315 314 314 314 316 317 317 317 317 317 315 315 315 320 317 316 316 313 313 313 313 313 313 312
308 311 308 307 309 311 312 311 316 318 311 310 309 310 310 312 314 314 313 312 312 314 317 318 318 317 315 315 318 320 321 322 318 316 320 316 317 316 315 315 314 314 313 312 312
309 313 314 314 313 312 312 312 319 311 310 310 310 311 311 312 314 314 313 313 318 319 319 316 320 317 315 314 318 321 322 324 324 320 317 318 319 317 317 315 315 315 314 314 314
310 313 314 314 314 312 308 313 309 311 311 311 310 312 311 311 313 313 313 316 319 317 319 319 319 316 315 314 314 319 319 320 321 323 325 319 317 315 315 315 316 315 315 313 313
310 312 315 315 311 311 309 314 310 311 311 311 311 312 312 311 312 312 313 315 318 316 314 317 318 314 314 314 313 314 316 320 322 323 323 319 320 319 319 319 318 318 317 316 311
310 311 313 311 312 306 309 309 311 312 311 312 312 311 312 311 312 314 315 314 316 316 314 315 318 314 313 315 313 313 319 319 319 321 321 319 316 318 317 318 318 319 319 318 315
306 311 315 311 307 305 309 311 312 313 311 311 311 311 311 310 314 315 316 315 316 315 315 314 316 316 313 312 312 312 314 317 320 317 323 324 322 318 319 320 320 320 319 319 320
304 307 313 310 307 307 309 313 313 313 309 309 309 309 309 311 311 315 314 314 314 314 316 314 315 317 315 312 317 318 317 317 318 319 319 322 320 317 317 318 319 319 320 320 321
305 310 305 303 305 310 310 312 314 311 309 307 306 310 309 310 310 311 313 313 315 314 316 316 311 316 319 316 315 317 316 315 316 321 317 320 320 318 317 317 318 319 320 319 321
305 306 308 307 308 309 309 311 311 311 307 306 308 310 313 311 311 312 312 312 312 313 314 315 317 315 314 314 314 315 316 317 318 317 320 317 317 316 316 315 317 318 320 320 320
306 308 305 309 308 310 308 309 310 309 307 308 308 312 312 311 311 313 311 312 314 315 315 313 316 316 318 315 314 316 318 319 321 320 318 317 317 317 316 315 322 323 324 321 321
307 308 305 307 308 308 307 309 310 308 307 308 311 310 311 312 311 311 311 311 313 313 310 308 311 315 317 314 314 320 315 315 316 318 321 322 318 316 318 321 321 322 323 324 323
Wind_Speed
28 27 27 26 24 23 20 18 16 14 12 12 12 14 17 21 23 8 5 5 3 4 6 9 7 9 6 4 4 3 2 2 4 3 6 9 9 6 6 9 7 8 7 12 32
29 29 29 28 25 24 21 19 17 14 12 11 12 14 17 22 18 7 3 6 6 3 3 6 5 6 1 3 3 4 3 6 6 7 7 11 8 14 12 13 5 15 20 31 23
30 29 30 29 26 25 22 20 16 14 11 10 11 14 18 17 4 4 9 6 2 2 2 5 8 1 3 2 3 4 6 10 11 11 12 17 19 7 6 10 5 9 10 12 11
31 31 33 29 26 24 22 19 15 12 10 10 13 15 14 5 1 2 10 6 1 1 3 7 5 4 3 4 2 3 5 6 9 9 8 12 8 14 6 9 6 8 5 4 7
32 33 32 28 25 22 21 16 13 11 10 11 13 13 4 4 7 5 8 4 3 1 3 2 5 4 4 5 9 4 4 8 8 9 7 7 6 10 9 8 8 8 6 7 4
35 37 31 26 24 21 18 12 10 10 11 11 11 7 3 2 4 10 8 6 4 6 6 0 2 2 1 5 4 7 13 15 10 11 6 6 9 8 22 3 8 8 8 7 9
37 39 33 26 22 18 13 9 9 9 9 9 8 2 1 9 7 6 10 8 8 8 4 8 3 4 0 7 4 13 11 12 13 7 7 7 9 10 16 17 7 9 13 8 10
40 39 32 24 20 16 12 9 7 8 8 5 4 2 6 4 8 15 17 21 20 17 15 18 11 3 4 2 6 6 5 5 4 6 9 2 11 18 16 15 22 13 16 13 10
42 39 30 21 18 15 11 11 8 6 5 2 2 2 8 11 6 10 13 12 26 17 12 10 2 5 0 2 5 4 5 11 9 4 9 5 16 15 11 12 20 16 13 14 13
43 38 30 18 16 15 13 12 9 0 1 2 3 2 6 6 11 10 10 12 7 5 5 2 3 3 3 4 6 6 7 8 12 15 14 18 16 12 9 5 11 8 9 13 13
44 37 28 16 14 16 16 6 5 3 2 6 6 5 13 17 6 6 15 11 4 2 5 7 0 7 13 12 14 9 13 14 16 16 10 15 17 15 9 6 10 15 9 10 13
46 37 27 14 16 13 11 1 5 6 7 9 13 14 26 16 5 7 13 5 3 7 4 4 7 15 13 16 12 11 16 19 19 16 13 14 13 12 9 7 9 13 15 9 9
49 37 24 15 11 4 9 10 10 5 2 7 5 5 4 7 4 10 6 5 8 7 7 6 9 8 4 7 9 14 16 16 15 19 15 7 18 10 6 6 10 14 15 11 10
51 37 20 16 2 11 6 17 8 4 4 5 2 4 4 2 4 12 10 7 3 5 5 6 4 6 10 12 7 14 8 12 13 6 5 4 15 21 11 12 14 16 14 13 9
52 32 12 9 10 6 14 19 13 4 4 3 6 3 10 1 9 10 14 5 3 7 3 8 8 8 12 17 14 17 14 17 17 13 3 5 7 24 8 12 12 11 15 17 15
51 21 8 4 8 11 20 22 3 5 3 6 3 7 16 7 8 10 7 7 4 3 6 9 4 6 13 10 11 14 13 7 6 2 12 14 10 17 9 17 17 12 13 15 15
48 13 7 6 4 14 20 5 5 4 6 7 6 7 7 10 7 5 6 7 3 7 5 6 4 3 5 8 7 12 5 3 3 1 11 13 12 19 8 11 11 16 12 12 14
45 7 6 10 12 14 9 5 5 8 5 4 9 10 5 11 6 5 6 5 6 4 4 4 7 5 8 9 5 2 5 3 5 4 4 3 7 6 12 13 15 16 10 16 17
35 8 5 6 9 4 5 5 2 3 5 5 5 3 4 11 7 6 4 0 2 5 2 5 6 15 21 11 7 4 5 6 5 3 6 5 7 9 14 8 6 8 7 10 15
17 11 6 8 4 3 5 3 3 5 6 3 3 2 6 8 5 6 3 4 3 4 4 2 13 10 9 7 12 12 7 4 3 3 5 4 6 8 4 4 6 10 9 10 9
7 4 6 21 1 5 2 5 6 12 6 4 3 4 5 7 3 3 5 7 2 4 5 4 6 6 6 5 5 3 2 1 3 4 4 4 5 7 4 1 5 9 13 10 12
8 3 14 23 4 1 2 6 8 9 8 3 2 2 4 7 5 4 6 4 7 4 3 3 4 6 10 19 13 11 8 6 4 4 5 3 5 10 3 4 1 12 13 9 7
4 3 10 10 3 3 6 7 5 15 5 3 3 4 4 4 5 5 9 6 6 5 6 4 4 4 6 3 3 3 6 6 6 4 10 10 4 2 4 9 2 10 7 7 8
3 4 5 4 2 1 4 5 6 8 6 7 8 3 6 5 4 7 14 4 5 8 15 8 4 7 9 13 6 11 17 15 11 5 8 15 12 13 10 13 8 8 6 8 9
3 3 1 4 5 10 4 6 9 8 3 8 4 8 5 4 5 6 9 20 13 22 6 7 5 7 16 19 20 20 20 20 15 17 13 18 13 14 15 16 7 7 6 11 8
2 3 4 8 7 3 3 4 4 10 6 7 12 10 2 4 5 20 20 13 6 2 4 2 3 4 12 16 15 15 10 15 6 15 18 20 18 8 13 6 4 6 7 9 8
6 5 2 4 5 4 3 4 13 10 5 9 5 4 7 6 16 21 18 15 11 6 2 2 3 3 5 9 14 3 7 10 13 12 6 5 3 6 8 10 6 9 10 12 11
Wind_Direction
359 357 355 351 347 345 343 341 337 334 329 325 325 330 337 340 329 327 228 231 244 293 323 342 330 280 266 265 191 103 343 271 272 273 267 294 311 330 301 322 323 349 328 286 160
359 357 354 348 345 343 341 339 336 334 331 330 332 334 338 339 328 262 233 219 251 322 281 356 322 1 222 230 288 135 143 241 225 260 285 294 296 309 323 327 348 340 354 357 22
0 357 352 345 342 340 339 338 337 336 337 335 331 333 340 335 325 302 154 182 194 350 314 306 298 273 290 50 242 226 226 251 262 253 263 278 289 282 288 296 304 322 340 342 14
360 355 349 344 341 338 336 338 342 345 341 335 330 332 341 350 9 218 163 172 118 25 344 332 359 35 338 312 313 274 273 260 272 288 292 276 284 284 205 265 266 290 302 339 342
360 355 349 344 341 339 337 341 344 347 341 336 329 335 15 10 256 215 181 179 209 252 265 328 1 1 352 311 340 162 312 316 290 280 252 286 277 275 284 279 301 304 321 308 306
0 357 348 343 342 340 338 354 359 351 341 337 329 359 67 332 313 219 201 206 236 244 266 312 216 263 92 342 10 309 324 316 314 307 293 287 292 330 295 307 313 315 307 294 288
0 358 353 346 345 341 346 357 351 340 341 337 340 65 92 233 147 167 198 235 236 229 249 273 269 83 295 333 313 320 315 315 292 300 293 326 311 282 295 305 281 299 298 293 281
360 357 355 351 351 348 352 342 333 325 332 341 21 76 256 262 233 248 248 248 256 254 246 268 257 176 160 221 338 308 298 289 314 304 287 353 281 280 283 294 291 286 287 285 278
360 357 355 353 350 348 349 326 313 298 316 1 72 59 285 321 237 249 223 220 236 265 289 303 99 186 305 66 356 327 271 277 302 252 274 189 267 271 270 272 280 280 277 283 282
0 357 353 350 348 343 346 328 326 21 76 344 283 342 279 297 289 226 215 207 202 236 324 294 79 176 9 88 265 261 291 288 298 299 315 311 259 255 261 251 282 287 284 279 280
359 355 352 342 343 335 343 322 10 13 190 214 215 228 268 280 290 307 219 218 225 166 231 264 92 253 247 214 233 250 270 277 280 276 294 283 280 265 256 263 284 293 290 283 269
358 354 348 335 330 322 326 310 247 277 313 239 238 232 251 262 283 266 271 214 200 230 250 336 246 246 252 255 233 237 257 268 273 273 277 285 267 263 262 243 248 262 277 258 274
355 354 344 336 338 353 315 294 328 340 330 296 250 236 235 169 237 265 177 224 218 238 256 234 250 290 318 326 297 243 243 259 262 283 274 297 281 285 263 259 270 269 262 264 245
354 355 347 338 39 336 285 345 327 26 51 285 238 279 20 266 283 262 245 175 219 236 244 239 257 314 301 288 269 279 241 259 279 314 265 109 286 271 271 255 256 264 265 273 265
353 353 347 337 313 312 330 327 333 57 46 119 32 21 318 12 279 9 21 15 295 254 234 249 294 287 283 270 267 268 269 268 267 266 272 218 268 270 205 252 246 253 262 268 266
354 351 334 330 318 326 331 330 346 43 351 356 51 329 352 350 354 4 21 19 265 268 256 278 244 249 252 279 290 265 274 310 280 185 255 243 223 273 223 242 253 240 242 250 257
352 344 303 287 283 330 337 16 42 68 335 357 336 344 328 359 25 38 358 353 357 335 344 300 261 272 58 1 340 29 26 276 299 211 252 215 236 243 268 264 250 250 247 250 247
348 339 310 283 310 312 346 51 55 9 41 328 343 317 349 9 323 5 353 341 48 1 300 12 325 17 2 335 277 222 175 251 235 217 266 238 235 244 232 249 249 255 247 258 253
347 354 300 305 302 291 64 49 232 311 321 309 323 302 309 340 313 353 329 253 108 46 49 304 248 319 309 304 274 166 190 154 294 251 253 215 278 297 267 267 274 260 276 282 250
345 339 298 316 272 65 64 257 331 288 288 274 290 281 317 321 330 355 296 259 142 127 165 229 294 257 292 316 275 232 187 232 207 246 243 253 241 243 17 12 329 323 312 294 284
11 20 344 345 133 53 110 237 290 323 344 283 272 290 281 288 282 275 254 294 159 199 155 202 224 274 341 228 249 337 348 234 215 222 247 290 248 191 183 262 308 309 308 303 288
350 6 358 348 50 23 336 291 302 309 310 317 329 272 265 302 259 235 233 217 188 203 268 164 259 260 244 276 283 251 247 185 242 245 254 274 248 270 69 327 296 249 283 287 308
342 274 347 34 61 330 304 314 296 318 309 331 289 264 293 288 308 237 269 246 162 144 172 187 236 281 305 350 9 200 209 220 232 245 241 254 240 219 293 283 233 268 281 297 275
8 353 327 32 127 73 332 282 311 299 309 350 294 298 301 292 235 281 295 315 187 204 240 218 222 216 261 266 269 279 276 275 256 243 262 247 279 295 296 296 290 279 277 286 258
37 293 205 299 326 316 292 274 319 339 22 300 320 331 333 297 263 245 299 299 291 285 281 167 251 222 254 269 275 273 279 289 252 252 255 270 272 278 286 280 252 244 265 282 283
17 15 343 291 276 274 300 314 315 329 328 309 328 306 255 283 230 301 302 301 254 280 144 178 252 262 274 263 271 288 287 299 299 252 253 258 268 340 287 277 235 294 273 290 329
344 332 101 267 298 312 254 339 310 323 304 324 316 306 308 275 288 281 271 268 237 213 117 44 313 283 272 331 307 186 359 327 317 305 328 304 359 328 327 325 320 312 336 319 314